www.pogodaiklimat.ru

Погода и климат >> Архив погоды >> Австрия >> Фельбах


ПОГОДА в Фельбахе

  • Прогноз погоды в Фельбахе
  • Монитор погоды в Фельбахе

АРХИВ ПОГОДЫ в Фельбахе

Время (UTC), дата Ветер
(напр.,м/с)
 
Видим.   Явления Облачность Т
(С)
Тd
(С)
f
(%)
Тe
(С)
Тes
(С)
Комфортность P
(гПа)
Po
(гПа)
Тmin
(С)
Tmax
(С)
R
(мм)
R24
(мм)
S
(см)
01 17.08 ЮЗ 1 н/о н/о +13.0 +12.4 96 +13 +13 1017.8 980.0
02 17.08 штиль 0 н/о н/о +12.5 +11.9 96 +12 +12 1017.8 979.9
03 17.08 ЮЗ 1 н/о н/о +12.1 +11.6 97 +12 +12 1017.2 979.3
04 17.08 З 1 н/о н/о +11.4 +11.1 98 +11 +11 1017.6 979.6
05 17.08 З 1 н/о н/о +12.9 +11.9 94 +13 +13 1017.3 979.5
06 17.08 З 1 н/о н/о +15.4 +12.6 83 +16 +16 1017.2 979.7 +11.1 +19.2
07 17.08 С 1 н/о н/о +16.7 +13.3 80 +18 +18 1017.3 980.0
08 17.08 штиль 0 н/о н/о +19.7 +14.5 72 +21 +21 комфорт 1016.4 979.5
09 17.08 ЮЗ 2 н/о н/о +20.1 +13.7 67 +23 +23 комфорт 1016.1 979.3
10 17.08 Ю 2 н/о н/о +22.6 +15.1 63 +26 +26 жарко 1015.8 979.3
11 17.08 Ю 2 н/о н/о +22.9 +14.1 58 +26 +26 жарко 1015.4 978.9
12 17.08 Ю 2 н/о н/о +24.3 +15.7 59 +27 +27 жарко 1014.4 978.2
13 17.08 Ю 2 н/о н/о +25.3 +15.9 56 +29 +29 душно 1014.0 977.9
14 17.08 ЮВ 2 н/о н/о +26.3 +15.8 52 +29 +29 жарко 1013.4 977.4
15 17.08 Ю 2 н/о н/о +25.8 +14.7 50 +28 +28 жарко 1013.3 977.3
16 17.08 Ю 3 н/о н/о +25.0 +15.1 54 +28 +28 жарко 1013.0 976.9
17 17.08 Ю 1 н/о н/о +24.1 +16.2 61 +27 +27 жарко 1013.1 976.9
18 17.08 Ю 1 н/о н/о +22.2 +16.2 69 +26 +26 душно 1013.4 976.9 +14.7 +26.5
19 17.08 В 1 н/о н/о +20.7 +16.6 77 +25 +25 комфорт 1013.7 977.1
20 17.08 Ю 1 н/о н/о +18.8 +16.5 86 +21 +21 комфорт 1014.0 977.1
21 17.08 штиль 0 н/о н/о +18.6 +16.5 88 +19 +19 1014.3 977.4
22 17.08 штиль 0 н/о н/о +17.7 +16.5 93 +18 +18 1014.4 977.4
23 17.08 штиль 0 н/о н/о +17.3 +16.2 93 +17 +17 1014.2 977.1
00 18.08 штиль 0 н/о н/о +16.6 +15.8 95 +16 +16 1014.3 977.1
01 18.08 штиль 0 н/о н/о +16.6 +15.8 95 +16 +16 1014.3 977.1
02 18.08 СЗ 1 н/о н/о +16.2 +15.5 96 +17 +17 1014.0 976.8
03 18.08 З 1 н/о н/о +16.3 +15.7 96 +17 +17 1013.8 976.6
04 18.08 штиль 0 н/о н/о +15.6 +15.0 96 +15 +15 1013.9 976.6
05 18.08 С 1 н/о н/о +16.1 +15.7 97 +17 +17 1014.0 976.8
06 18.08 СЗ 1 н/о н/о +17.9 +16.3 90 +19 +19 1014.0 977.0 +15.3 +22.5
07 18.08 СЗ 1 н/о н/о +19.8 +17.6 87 +24 +24 комфорт 1013.8 977.1
08 18.08 штиль 0 н/о н/о +22.6 +17.9 75 +28 +28 душно 1013.4 977.0
09 18.08 Ю 2 н/о н/о +24.7 +18.0 66 +29 +29 душно 1013.0 976.9
10 18.08 Ю 1 н/о н/о +26.0 +18.5 63 +31 +31 очень
душно
1012.8 976.9
11 18.08 Ю 2 н/о н/о +27.0 +18.6 60 +32 +32 очень
душно
1012.5 976.7
12 18.08 ЮВ 2 н/о н/о +28.0 +17.8 54 +32 +32 душно 1012.1 976.4
13 18.08 Ю 2 н/о н/о +28.7 +16.6 48 +32 +32 душно 1012.0 976.4
14 18.08 Ю 2 н/о н/о +29.4 +17.1 48 +33 +33 душно 1011.8 976.3
15 18.08 Ю 3 н/о н/о +28.8 +17.9 52 +33 +33 очень
душно
1011.8 976.2
16 18.08 Ю 3 н/о н/о +28.2 +18.2 55 +33 +33 очень
душно
1011.5 975.9
17 18.08 ЮВ 1 н/о н/о +27.1 +18.1 58 +32 +32 очень
душно
1011.7 975.9
18 18.08 ЮВ 1 н/о н/о +25.7 +17.7 61 +30 +30 душно 1011.5 975.6 +16.4 +29.8
19 18.08 ЮВ 1 н/о н/о +23.4 +17.7 70 +29 +29 душно 1011.8 975.6
20 18.08 штиль 0 н/о н/о +23.0 +17.6 72 +28 +28 душно 1012.0 975.7
21 18.08 Ю 1 н/о н/о +22.0 +17.5 76 +27 +27 душно 1012.3 975.9
22 18.08 штиль 0 н/о н/о +19.8 +17.5 87 +22 +22 комфорт 1012.9 976.2
23 18.08 штиль 0 н/о н/о +18.7 +17.3 92 +20 +20 1012.7 975.9
00 19.08 ЮЗ 1 н/о н/о +17.6 +16.8 95 +19 +19 1012.9 975.9
01 19.08 штиль 0 н/о н/о +17.2 +16.6 96 +17 +17 1012.6 975.6
02 19.08 штиль 0 н/о н/о +16.7 +16.2 97 +17 +17 1012.8 975.7
03 19.08 штиль 0 н/о н/о +15.8 +15.3 97 +16 +16 1013.1 975.9
04 19.08 штиль 0 н/о н/о +15.9 +15.6 98 +16 +16 1013.6 976.4
05 19.08 СЗ 1 н/о н/о +16.8 +16.2 96 +18 +18 1013.7 976.6
06 19.08 СЗ 1 н/о н/о +19.9 +17.3 85 +24 +24 комфорт 1014.0 977.3 +15.5 +26.0
07 19.08 штиль 0 н/о н/о +22.2 +18.1 78 +27 +27 душно 1014.0 977.6
08 19.08 С 1 н/о н/о +25.0 +17.8 64 +29 +29 душно 1014.2 978.1
09 19.08 В 2 н/о н/о +27.0 +17.3 55 +31 +31 душно 1014.7 978.8
10 19.08 В 2 н/о н/о +27.3 +17.0 53 +31 +31 душно 1015.2 979.3
11 19.08 В 3 н/о н/о +28.0 +18.1 55 +33 +33 очень
душно
1015.1 979.3
12 19.08 В 2 н/о н/о +28.7 +17.5 51 +33 +33 очень
душно
1015.0 979.3
13 19.08 В 2 н/о н/о +29.2 +17.4 49 +33 +33 очень
душно
1015.0 979.3
14 19.08 ЮВ 2 н/о н/о +29.5 +15.6 43 +32 +32 душно 1014.9 979.2
15 19.08 ЮВ 2 н/о н/о +29.2 +16.6 47 +33 +33 очень
душно
1014.7 979.0
16 19.08 ЮВ 1 н/о н/о +28.7 +16.5 48 +32 +32 душно 1014.4 978.7 0.0
17 19.08 Ю 2 н/о н/о +27.0 +17.3 55 +31 +31 душно 1014.7 978.8
18 19.08 ЮЗ 1 н/о н/о +24.4 +18.1 68 +29 +29 душно 1015.5 979.3 +18.2 +29.9 0.0
19 19.08 штиль 0 н/о н/о +23.3 +18.2 73 +29 +29 душно 1016.3 979.9
20 19.08 З 4 н/о осадки н/о +19.9 +19.0 95 +23 +23 комфорт 1018.4 981.5 5
21 19.08 СЗ 1 н/о {осадки} н/о +19.6 +19.0 96 +23 +23 комфорт 1018.1 981.2 10
22 19.08 З 1 н/о н/о +19.5 +19.0 97 +23 +23 комфорт 1017.8 980.9
23 19.08 З 2 н/о н/о +19.6 +19.2 98 +23 +23 комфорт 1018.1 981.2
00 20.08 ЮЗ 1 н/о {осадки} н/о +19.2 +18.7 97 +22 +22 комфорт 1018.0 981.1 10
01 20.08 штиль 0 н/о н/о +19.2 +18.8 98 +21 +21 комфорт 1018.0 981.1
02 20.08 штиль 0 н/о н/о +18.7 +18.4 98 +20 +20 1018.2 981.2
03 20.08 штиль 0 н/о н/о +18.4 +18.1 98 +19 +19 1018.3 981.2
04 20.08 штиль 0 н/о н/о +18.3 +18.0 98 +19 +19 1018.6 981.5
05 20.08 З 1 н/о н/о +19.1 +18.6 97 +22 +22 комфорт 1018.8 981.8
06 20.08 З 1 н/о н/о +20.6 +19.1 91 +26 +26 душно 1018.8 982.0 +18.1 +25.1 10
07 20.08 З 1 н/о н/о +22.9 +20.3 85 +30 +30 очень
душно
1018.6 982.1
08 20.08 СЗ 1 н/о н/о +24.5 +18.5 69 +29 +29 душно 1018.5 982.2
09 20.08 Ю 1 н/о н/о +25.6 +18.9 66 +31 +31 очень
душно
1018.6 982.4
10 20.08 Ю 1 н/о н/о +26.4 +18.1 60 +31 +31 душно 1018.4 982.3
11 20.08 Ю 1 н/о н/о +27.2 +18.9 60 +32 +32 очень
душно
1018.0 982.0
12 20.08 Ю 1 н/о н/о +27.6 +18.9 59 +33 +33 очень
душно
1017.5 981.6
13 20.08 В 1 н/о н/о +28.7 +18.9 55 +34 +34 очень
душно
1016.9 981.1
14 20.08 Ю 2 н/о н/о +28.8 +18.4 53 +34 +34 очень
душно
1016.7 980.9
15 20.08 ЮВ 1 н/о н/о +29.3 +18.3 52 +34 +34 очень
душно
1016.2 980.5
16 20.08 Ю 2 н/о н/о +28.5 +18.2 54 +33 +33 очень
душно
1016.1 980.3
17 20.08 Ю 1 н/о н/о +26.6 +19.2 64 +32 +32 очень
душно
1016.1 980.1
18 20.08 ЮЗ 1 н/о н/о +24.4 +18.8 71 +29 +29 душно 1016.4 980.1 +19.9 +29.6
19 20.08 ЮЗ 1 н/о н/о +23.1 +19.2 79 +29 +29 очень
душно
1016.8 980.4
20 20.08 штиль 0 н/о н/о +21.9 +19.5 86 +27 +27 душно 1017.0 980.4
21 20.08 штиль 0 н/о н/о +21.3 +19.7 91 +26 +26 душно 1017.0 980.4
22 20.08 СВ 1 н/о н/о +20.9 +19.5 92 +27 +27 душно 1016.9 980.2
23 20.08 В 1 н/о н/о +20.0 +19.2 95 +24 +24 комфорт 1016.9 980.1
00 21.08 ЮЗ 1 н/о н/о +19.7 +19.1 96 +24 +24 комфорт 1016.9 980.1
01 21.08 ЮЗ 1 н/о н/о +19.6 +18.9 96 +23 +23 комфорт 1017.4 980.5
02 21.08 В 1 н/о н/о +19.4 +18.7 96 +23 +23 комфорт 1017.8 980.9
03 21.08 штиль 0 н/о н/о +19.7 +18.6 93 +22 +22 комфорт 1018.3 981.4
04 21.08 В 1 н/о н/о +20.1 +18.5 91 +25 +25 комфорт 1019.3 982.4
05 21.08 С 1 н/о н/о +20.6 +15.6 73 +25 +25 комфорт 1020.4 983.5
06 21.08 С 1 н/о н/о +21.5 +13.7 61 +24 +24 комфорт 1021.4 984.5 +19.2 +24.8
07 21.08 С 3 н/о н/о +21.4 +12.8 58 +24 +24 комфорт 1022.1 985.2
08 21.08 СВ 2 н/о н/о +21.6 +13.4 60 +24 +24 комфорт 1022.7 985.8
09 21.08 В 2 н/о н/о +21.6 +13.5 60 +24 +24 комфорт 1022.9 986.0
10 21.08 В 2 н/о н/о +21.6 +13.4 60 +24 +24 комфорт 1023.5 986.6
11 21.08 В 3 н/о н/о +22.6 +13.4 56 +26 +26 жарко 1023.4 986.6
12 21.08 В 2 н/о н/о +23.0 +13.3 54 +26 +26 жарко 1023.5 986.7
13 21.08 СВ 2 н/о н/о +22.2 +12.2 53 +25 +25 комфорт 1023.5 986.6
14 21.08 СВ 2 н/о н/о +21.4 +11.9 55 +24 +24 комфорт 1024.0 987.0
15 21.08 СВ 2 н/о н/о +21.6 +12.4 56 +24 +24 комфорт 1023.8 986.8
16 21.08 СВ 1 н/о н/о +21.3 +12.2 56 +23 +23 комфорт 1024.1 987.1
17 21.08 СВ 2 н/о н/о +20.4 +11.9 58 +23 +23 комфорт 1024.0 986.9
18 21.08 СВ 2 н/о н/о +19.8 +11.8 60 +22 +22 комфорт 1024.1 986.9 +19.8 +23.0
19 21.08 СВ 2 н/о н/о +19.3 +11.8 62 +21 +21 комфорт 1024.8 987.5
20 21.08 С 1 н/о н/о +18.6 +11.9 65 +20 +20 1025.2 987.8
21 21.08 СВ 1 н/о н/о +17.5 +11.6 68 +19 +19 1025.5 988.0
22 21.08 СЗ 1 н/о н/о +16.2 +11.5 74 +17 +17 1025.9 988.2
23 21.08 СЗ 1 н/о н/о +15.2 +11.8 80 +16 +16 1025.7 987.9
00 22.08 штиль 0 н/о н/о +14.8 +12.7 87 +14 +14 1025.3 987.4
01 22.08 штиль 0 н/о н/о +14.3 +12.7 90 +14 +14 1025.3 987.4
02 22.08 штиль 0 н/о н/о +13.9 +12.9 94 +13 +13 1025.3 987.3
03 22.08 штиль 0 н/о н/о +14.5 +13.5 94 +14 +14 1024.9 987.0
04 22.08 З 3 н/о н/о +14.4 +13.3 93 +13 +13 1025.0 987.1
05 22.08 З 1 н/о н/о +14.9 +13.5 91 +15 +15 1024.9 987.1
06 22.08 ЮЗ 1 н/о н/о +16.9 +13.8 82 +18 +18 1024.4 986.9 +13.7 +19.9
07 22.08 З 2 н/о н/о +17.0 +14.5 85 +17 +17 1024.6 987.1
08 22.08 СЗ 1 н/о н/о +19.0 +14.3 74 +21 +21 комфорт 1024.4 987.1
09 22.08 ЮВ 1 н/о н/о +20.4 +14.0 67 +24 +24 комфорт 1024.4 987.3
10 22.08 штиль 0 н/о н/о +21.3 +13.6 61 +24 +24 комфорт 1024.0 987.0
11 22.08 ЮВ 1 н/о н/о +21.3 +13.2 60 +24 +24 комфорт 1023.6 986.6
12 22.08 штиль 0 н/о н/о +21.4 +13.1 59 +24 +24 комфорт 1023.5 986.5
13 22.08 штиль 0 н/о н/о +22.0 +14.2 61 +25 +25 комфорт 1023.2 986.3
14 22.08 Ю 1 н/о н/о +21.2 +13.7 62 +24 +24 комфорт 1023.2 986.2
15 22.08 ЮВ 1 н/о н/о +22.2 +13.7 59 +25 +25 комфорт 1022.5 985.7
16 22.08 С 2 н/о н/о +22.3 +13.7 58 +25 +25 комфорт 1022.4 985.6
17 22.08 С 1 н/о н/о +22.0 +13.1 57 +25 +25 комфорт 1022.1 985.3
18 22.08 штиль 0 н/о н/о +19.7 +14.8 73 +21 +21 комфорт 1022.9 985.8 +15.6 +22.3
19 22.08 СЗ 1 н/о н/о +18.9 +15.4 80 +21 +21 комфорт 1024.1 986.8
20 22.08 штиль 0 н/о н/о +18.5 +15.7 84 +19 +19 1024.4 987.1
21 22.08 З 2 н/о н/о +18.2 +16.0 87 +19 +19 1024.5 987.1
22 22.08 З 1 н/о н/о +18.1 +16.3 89 +19 +19 1024.5 987.1
23 22.08 штиль 0 н/о н/о +17.9 +16.3 90 +18 +18 1024.5 987.1
00 23.08 штиль 0 н/о н/о +17.8 +16.4 92 +18 +18 1024.2 986.8
01 23.08 З 1 н/о н/о +17.9 +16.0 89 +19 +19 1024.4 987.0
02 23.08 штиль 0 н/о н/о +17.4 +16.0 91 +17 +17 1024.3 986.9
03 23.08 СЗ 1 н/о н/о +17.4 +16.3 93 +18 +18 1024.0 986.6
04 23.08 ЮЗ 1 н/о в посл. час осадки н/о +17.3 +16.5 95 +18 +18 1024.0 986.6 0.1
05 23.08 штиль 0 н/о н/о +17.5 +16.7 95 +17 +17 1024.5 987.1 0.0
06 23.08 Ю 1 н/о {осадки} н/о +18.2 +17.2 94 +20 +20 1024.6 987.3 +17.1 +20.3 0.1
07 23.08 штиль 0 н/о н/о +19.0 +16.9 88 +20 +20 1024.9 987.6
08 23.08 С 1 н/о н/о +19.8 +17.0 84 +23 +23 комфорт 1025.0 987.8
09 23.08 СВ 1 н/о н/о +21.4 +16.3 73 +25 +25 комфорт 1024.9 987.9
10 23.08 С 1 н/о н/о +22.4 +16.5 69 +27 +27 душно 1024.4 987.6
11 23.08 СВ 1 н/о н/о +23.4 +17.2 68 +29 +29 душно 1024.1 987.4
12 23.08 С 2 н/о н/о +24.1 +17.2 65 +28 +28 душно 1023.6 987.0
13 23.08 С 1 н/о н/о +24.9 +17.4 63 +29 +29 душно 1023.1 986.6
14 23.08 З 1 н/о н/о +25.8 +18.4 64 +31 +31 очень
душно
1022.7 986.4
15 23.08 штиль 0 н/о н/о +25.0 +17.4 63 +29 +29 душно 1022.1 985.7
16 23.08 СВ 1 н/о н/о +25.0 +17.3 62 +29 +29 душно 1021.7 985.3
17 23.08 штиль 0 н/о н/о +23.1 +18.2 74 +29 +29 очень
душно
1021.8 985.2
18 23.08 З 1 н/о н/о +21.9 +18.1 79 +27 +27 душно 1022.1 985.3 +18.1 +25.9
19 23.08 штиль 0 н/о н/о +20.6 +18.3 87 +24 +24 комфорт 1022.6 985.7
20 23.08 З 1 н/о н/о +20.3 +18.4 89 +25 +25 комфорт 1022.8 985.8
21 23.08 З 2 н/о н/о +19.7 +18.1 90 +23 +23 комфорт 1022.7 985.6
22 23.08 З 1 н/о н/о +19.2 +17.7 91 +22 +22 комфорт 1022.4 985.3
23 23.08 З 1 н/о н/о +18.7 +17.6 93 +21 +21 комфорт 1022.4 985.2
00 24.08 штиль 0 н/о н/о +18.3 +17.4 94 +19 +19 1022.1 984.9
01 24.08 штиль 0 н/о н/о +18.0 +17.3 96 +18 +18 1022.2 984.9
02 24.08 В 1 н/о н/о +18.1 +17.1 94 +19 +19 1022.0 984.7

 

Местоположение метеостанции Фельбах (Австрия): широта 46.95 долгота 15.88 высота над уровнем моря 320 м.

В архиве по умолчанию представлена погода в Фельбахе за последнюю неделю. Архивные данные за месяц целиком и за предыдущие месяцы, начиная с января 2011 года, Вы можете получить, выбрав интересующий диапазон дат из раскрывающегося списка и нажав кнопку "Ввод!".


*Определитесь, кто Вы:
робот инопланетянин человек

Внимание! Время в таблицах - всемирное. Для получения местного времени необходимо прибавить поправку, которая равна 1 ч.

Смотрите также архив погоды в соседних городах и на ближайших метеорологических станциях:

Погода в Бад-Глайхенбере (Австрия) (9 км)
Погода в Ласницхёэ (Австрия) (26 км)
Погода в Бад-Радкерсбурге (Австрия) (31 км)
Погода в Лейбнице (Австрия) (32 км)
Погода в Сентготтхарде (Венгрия) (34 км)
Погода в Граце (Австрия) (35 км)
Погода в Хартберге (Австрия) (37 км)
Погода в Граце университет (Австрия) (38 км)
Погода в Санкт Радегунд бай Грац (Австрия) (39 км)
Погода в Мурска-Соботе (Словения) (40 км)

Пояснения к столбцам:

Ветер - указаны скорость ветра в м/с - средняя за 10 мин, порывы в срок и между сроками (в фигурных скобках) и направление, откуда дует ветер: С - северный, СВ - северо-восточный, В - восточный, ЮВ - юго-восточный, Ю - южный, ЮЗ - юго-западный, З - западный, СЗ - северо-западный.
Видимость - горизонтальная дальность видимости в метрах или километрах. При видимости от 1 до 10 км при отсутствии осадков обычно наблюдается дымка, при ухудшении видимости до 1 км и менее - туман. В сухую погоду видимость может ухудшаться дымом, пылью или мглою.
Явления - указаны атмосферные явления, наблюдавшиеся в срок или в последний час перед сроком; фигурными скобками обозначены явления, наблюдавшиеся между сроками (за 1-3 часа до срока); квадратными скобками обозначены град или гололедные отложения с указанием их диаметра в мм.
Облачность - указаны через наклонную черту общая и нижняя облачность в баллах и высота нижней границы облаков в метрах; квадратными скобками обозначены формы облаков: Ci - перистые, Cs - перисто-слоистые, Cc - перисто-кучевые, Ac - высококучевые, As - высокослоистые, Sc - слоисто-кучевые, Ns - слоисто-дождевые, Cu - кучевые, Cb - кучево-дождевые. Подробнее классификацию облаков см. в Атласе облаков (PDF).
T - Температура воздуха - температура, измеренная на высоте 2 м над землей.
Td - Температура точки росы - температура, при понижении до которой содержащийся в воздухе водяной пар достигнет насыщения.
f - Относительная влажность воздуха - влажноcть воздуха, измеренная на высоте 2 м над землей.
Te - Эффективная температура - температура, которую ощущает одетый по сезону человек в тени. Характеристика душности погоды. При расчете учитывается влияние влажности воздуха и скорости ветра на теплоощущения человека.
Tes - Эффективная температура на солнце - температура, которую ощущает человек, с поправкой на солнечный нагрев. Характеристика знойности погоды. Зависит от высоты солнца над горизонтом, облачности и скорости ветра. Ночью, в пасмурную погоду, а также при ветре 12 м/с и более поправка равна нулю.
P - Атмосферное давление - приведенное к уровню моря атмосферное давление.
Po - Атмосферное давление - измеренное на уровне метеостанции атмосферное давление.
Tmin - Минимальная температура - минимум температуры воздуха на высоте 2 м над землей.
Tmax - Максимальная температура - максимум температуры воздуха на высоте 2 м над землей.
R - Количество осадков - Количество выпавших осадков за период времени, мм. При наведении курсора мыши на число - период времени, за который выпало указанное количество осадков.
R24 - Количество осадков - Количество выпавших осадков за 24 часа, мм.
S - Снежный покров - Высота снежного покрова, см. При наведении курсора мыши на число - состояние снежного покрова и степень покрытия местности в баллах.